Regional Weather Roundup
Issued by NWS

Home | Current Version | Previous Version | Text Only | Print | Product List | Glossary Off
Versions: 1 2 3 4 5 6 7 8 9 10 11 12 13 14 15 16 17 18 19 20 21 22 23 24 25 26 27 28 29 30 31 32 33 34 35 36 37 38 39 40 41 42 43 44 45 46 47 48 49 50

620
ASUS45 KCYS 020210
RWRWY

WYOMING REGIONAL WEATHER ROUNDUP
NATIONAL WEATHER SERVICE CHEYENNE WY
700 PM MST THU DEC 01 2016

NOTE:  "FAIR" INDICATES FEW OR NO CLOUDS BELOW 12,000 FEET
WITH NO SIGNIFICANT WEATHER AND/OR OBSTRUCTIONS TO VISIBILITY.

WYZ001-020300-
YELLOWSTONE NATIONAL PARK

CITY           SKY/WX    TMP DP  RH WIND       PRES   REMARKS
LK YELLOWSTONE   N/A     11  10  96 CALM      29.98R
W YELLOWSTONE  NOT AVBL

$$
WYZ002>013-054>058-071-098>099-020300-
NORTHERN WYOMING

CITY           SKY/WX    TMP DP  RH WIND       PRES   REMARKS
JACKSON        CLOUDY    16  12  86 NE6       30.01R WCI   7
CODY           FAIR      27  18  69 CALM      29.99R
GREYBULL       CLOUDY    31  19  61 W7        29.99R WCI  24
WORLAND        CLOUDY    30  22  72 CALM      29.98R
SHERIDAN       CLOUDY    33  23  66 W7        29.98R WCI  27
BUFFALO        FLURRIES  34  23  64 W8        29.98R WCI  27
GILLETTE       CLOUDY    28  24  85 SW3       29.96R
HULETT         LGT SNOW  30  27  86 SW5       29.97R WCI  25
NEWCASTLE      CLOUDY    28  27  93 CALM      29.98R

$$
WYZ014>020-022>026-101>103-020300-
CENTRAL WYOMING

CITY           SKY/WX    TMP DP  RH WIND       PRES   REMARKS
BIG PINEY      FAIR       8   5  87 NW9       29.97R WCI  -5
PINEDALE       FAIR      12   9  85 NW10      29.97R WCI  -1
DUBOIS         FAIR      19   9  63 NW10      29.93S WCI   8
LANDER         MOCLDY    22  16  78 NW6       29.96R WCI  14
RIVERTON       FAIR      20  16  84 N7        29.97R WCI  11
CASPER         FLURRIES  27  23  85 NW3       29.97R
DOUGLAS        CLOUDY    28  23  81 NW8       29.98R WCI  20

$$
WYZ021-027>030-104>119-020300-
SOUTHERN WYOMING

CITY           SKY/WX    TMP DP  RH WIND       PRES   REMARKS
EVANSTON       CLOUDY    19  12  74 W8        30.00R WCI   9
FORT BRIDGER     N/A     18  13  82 W9        30.02R WCI   6
ROCK SPRINGS   FAIR      18  11  74 SW12      29.97R WCI   5
DIXON          LGT SNOW  25  21  85 CALM      30.02S
RAWLINS        CLOUDY    23  16  74 SW8       29.95S WCI  14
SARATOGA       CLOUDY    23  21  93 SE7       29.97R WCI  15
LARAMIE        CLOUDY    18  13  80 NE3       29.93R
CHEYENNE       CLOUDY    25  15  66 W3        29.96R
TORRINGTON     CLOUDY    30  15  53 W6        29.97R WCI  24
PINE BLUFFS    FAIR      28  19  69 NW8       29.97S WCI  20

$$




USA.gov is the U.S. government's official web portal to all federal, state and local government web resources and services.